Вернуться в каталог

STARLINK-35553

АктивенСвязьVLEO
NORAD 66120·PAYLOAD·🇺🇸 United States

Запущен Oct 22, 2025 с Vandenberg Space Force Base

Loading…

Ближайшие Пролёты (ближайшие 24 часа)

TLE

СвежийSource: CelesTrak SupGP

Эпоха: Sep 14, 2026, 22:43 UTC

1 66120C 25237G   26257.94701389  .00031688  00000+0  93605-3 0  2575
2 66120  53.1576 237.3125 0001298  90.2805 220.9345 15.34380331    18

Отслеживайте STARLINK-35553 в реальном времени с AllMySat

Download on the App Store